Regional Weather Roundup
Issued by NWS

Home | Current Version | Previous Version | Graphics & Text | Print | Product List | Glossary On
Versions: 1 2 3 4 5 6 7 8 9 10 11 12 13 14 15 16 17 18 19 20 21 22 23 24 25 26 27 28 29 30 31 32 33 34 35 36 37 38 39 40 41 42 43 44 45 46 47 48 49 50
000
ASUS43 KIND 251109
RWRIN

WEATHER ROUNDUP FOR INDIANA
NATIONAL WEATHER SERVICE INDIANAPOLIS IN
700 AM EDT SAT OCT 25 2014

NOTE: "FAIR" INDICATES FEW OR NO CLOUDS BELOW 12,000 FEET WITH NO
SIGNIFICANT WEATHER AND/OR OBSTRUCTIONS TO VISIBILITY.

* - STATION DOES NOT REPORT WEATHER SUCH AS PRECIPITATION OR FOG.

+ - STATION NOT QUALITY CONTROLLED BY THE NATIONAL WEATHER SERVICE.
    USE DATA WITH CAUTION...ESPECIALLY DEWPOINT AND RELATIVE
    HUMIDITY OBSERVATIONS.

INZ001>003-010>013-019-020-251200-
NORTHWEST INDIANA

CITY           SKY/WX    TMP DP  RH WIND       PRES   REMARKS
GARY /AIRPORT/ PTCLDY    54  52  94 CALM      29.92S FOG
KNOX *+        PTCLDY    50  48  92 CALM      29.92R
LA PORTE +       N/A     50  50 100 CALM      29.91F FOG
MICHIGAN CITY+ CLEAR     52  52 100 CALM      29.92S
MONTICELLO +   MOCLDY    52  50  94 CALM      29.93R
RENSSELAER +   PTCLDY    52  52 100 SW3       29.94R FOG
VALPARAISO     PTCLDY    51  49  92 W5        29.92S FOG

$$

LMZ046-743>745-251200-
SOUTHERN LAKE MICHIGAN

STATION/POSITION TIME  TEMP WIND        PRES
                       AIR  DIR/SP/G
                 (UTC) (F)  (DEG/KT/KT) (MB)
MICHIGAN CITY    1100   56  210/ 11/ 12   N/A

$$

INZ004-005-014>016-021>024-251200-
NORTH CENTRAL INDIANA

CITY           SKY/WX    TMP DP  RH WIND       PRES   REMARKS
GOSHEN         CLOUDY    54  51  90 SW8       29.91R
LOGANSPORT +   MOCLDY    52  50  93 SW6       29.94S
PERU/GRISSOM   PTCLDY    51  51 100 SW5       29.94R
ROCHESTER +    PTCLDY    54  52  94 SW3       29.93S FOG
SOUTH BEND     CLOUDY    54  51  90 W7        29.92S
WARSAW +       CLOUDY    54  52  94 SW5       29.92S

$$

INZ006>009-017-018-025>027-251200-
NORTHEAST INDIANA

CITY           SKY/WX    TMP DP  RH WIND       PRES   REMARKS
ANGOLA *+      CLOUDY    55  48  76 W7        29.90R
AUBURN +       CLOUDY    54  50  87 SW6       29.92R
FORT WAYNE     CLOUDY    54  51  90 SW7       29.94R
HUNTINGTON +   CLOUDY   N/A N/A N/A SW3       29.93R

$$

INZ028-029-035-036-043>045-051>053-251200-
WEST CENTRAL INDIANA

CITY           SKY/WX    TMP DP  RH WIND       PRES   REMARKS
GREENCASTLE +  MOCLDY    54  50  87 CALM      29.97R
LAFAYETTE      PTCLDY    53  51  93 W3        29.95R
TERRE HAUTE    PTCLDY    55  51  86 SW5       29.97R

$$

INZ030>032-037>040-046>048-054>057-064-065-251200-
CENTRAL INDIANA

CITY           SKY/WX    TMP DP  RH WIND       PRES   REMARKS
CP ATTERBURY + MOCLDY    50  48  93 CALM      29.97F
COLUMBUS       MOCLDY    50  50 100 S9        29.97
FRANKFORT +    MOCLDY    52  52 100 SW3       29.97R FOG
INDIANAPOLIS   MOCLDY    52  49  89 SW6       29.95S
-EAGLE CREEK   MOCLDY    54  51  90 SW5       29.95R
KOKOMO *+      PTCLDY    54  48  82 SW8       29.95R
MARION +       CLOUDY    53  50  89 SW6       29.95R
MT COMFORT *+  MOCLDY    52  52 100 SW7       29.96R
SHELBYVILLE    CLOUDY    55  50  83 S9        29.96F
ZIONSVILLE +   MOCLDY    54  49  83 SW5       29.96R

$$

INZ033-034-041-042-049-050-058-059-251200-
EAST CENTRAL INDIANA

CITY           SKY/WX    TMP DP  RH WIND       PRES   REMARKS
MUNCIE         CLOUDY    57  50  77 SW8       29.94S

$$

INZ060-061-067>069-081>083-085>088-251200-
SOUTHWEST INDIANA

CITY           SKY/WX    TMP DP  RH WIND       PRES   REMARKS
EVANSVILLE     CLOUDY    59  53  80 SW7       30.01F
HUNTINGBURG *+ CLOUDY    55  52  88 S5        30.02S
WASHINGTON +   MOCLDY    59  55  86 SW8       29.98S

$$

INZ062-063-066-070>080-084-089>092-251200-
SOUTH CENTRAL AND SOUTHEAST INDIANA

CITY           SKY/WX    TMP DP  RH WIND       PRES   REMARKS
BLOOMINGTON    MOCLDY    56  52  86 SW6       29.98S
SEYMOUR +      CLOUDY    54  52  94 S3        29.98

$$




USA.gov is the U.S. government's official web portal to all federal, state and local government web resources and services.